THY5BM LTCV-LTFM

Flight info

Callsign THY5BM
Flight time 1h 50m
Altitude 36000
Route ABDIK UW197 SRT UL614 MARTI UG8 GOBIT UL614 BAG UL605 YAVRU UL615 ERSEN
Aircraft A21N/M-SDE2E3FGHIRWXY/LB1

Departure

Time 2026-05-01 10:31
Airport Şırnak Şerafettin Elçi Airport (LTCV)

Arrival

Time 2026-05-01 12:22
Airport İstanbul Airport (LTFM)
Time Latitude Longitude Altitude Speed Heading
2026-05-01 10:08 37.36115 42.05848 2068 ft 0 kts 255°
2026-05-01 10:19 37.36115 42.05849 2068 ft 0 kts 255°
2026-05-01 10:20 37.36122 42.05884 2068 ft 2 kts 255°
2026-05-01 10:20 37.36126 42.05902 2067 ft 2 kts 255°
2026-05-01 10:20 37.36130 42.05920 2067 ft 2 kts 255°
2026-05-01 10:20 37.36134 42.05938 2067 ft 2 kts 255°
2026-05-01 10:21 37.36137 42.05956 2067 ft 1 kts 287°
2026-05-01 10:21 37.36132 42.05967 2067 ft 0 kts 296°
2026-05-01 10:25 37.36142 42.05943 2066 ft 5 kts 297°
2026-05-01 10:25 37.36222 42.05898 2060 ft 0 kts 24°
2026-05-01 10:26 37.36223 42.05899 2060 ft 0 kts 24°
2026-05-01 10:26 37.36267 42.05923 2059 ft 12 kts 25°
2026-05-01 10:26 37.36329 42.06207 2057 ft 28 kts 117°
2026-05-01 10:27 37.36181 42.06593 2060 ft 20 kts 116°
2026-05-01 10:27 37.36060 42.06915 2059 ft 25 kts 115°
2026-05-01 10:28 37.35980 42.07124 2055 ft 25 kts 116°
2026-05-01 10:28 37.35894 42.07289 2053 ft 14 kts 284°
2026-05-01 10:28 37.35951 42.07199 2054 ft 12 kts 300°
2026-05-01 10:29 37.35981 42.07124 2055 ft 2 kts 296°
2026-05-01 10:29 37.35985 42.07115 2055 ft 0 kts 297°
2026-05-01 10:30 37.35999 42.07081 2056 ft 24 kts 295°
2026-05-01 10:30 37.36478 42.05813 2060 ft 131 kts 296°
2026-05-01 10:31 37.37429 42.03321 2573 ft 158 kts 296°
2026-05-01 10:31 37.38472 42.00682 3095 ft 182 kts 296°
2026-05-01 10:32 37.39669 41.97607 3632 ft 209 kts 296°
2026-05-01 10:32 37.40319 41.95916 3901 ft 221 kts 296°
2026-05-01 10:32 37.42003 41.92427 4214 ft 251 kts 321°
2026-05-01 10:33 37.45448 41.91489 4872 ft 272 kts 17°
2026-05-01 10:33 37.48273 41.94524 6045 ft 277 kts 53°
2026-05-01 10:34 37.49361 41.96547 6609 ft 281 kts 58°
2026-05-01 10:34 37.50460 41.98571 7196 ft 285 kts 48°
2026-05-01 10:34 37.52035 42.00082 7801 ft 286 kts 22°
2026-05-01 10:35 37.55878 42.00044 9098 ft 286 kts 343°
2026-05-01 10:35 37.57811 41.99369 9703 ft 290 kts 342°
2026-05-01 10:35 37.59776 41.98674 10332 ft 294 kts 342°
2026-05-01 10:35 37.61771 41.97975 10682 ft 308 kts 343°
2026-05-01 10:36 37.66117 41.96478 11240 ft 339 kts 343°
2026-05-01 10:36 37.68422 41.95690 11657 ft 348 kts 343°
2026-05-01 10:36 37.70776 41.94905 12243 ft 351 kts 343°
2026-05-01 10:37 37.73134 41.94134 12826 ft 354 kts 344°
2026-05-01 10:37 37.77933 41.92561 13977 ft 360 kts 343°
2026-05-01 10:37 37.80368 41.91759 14538 ft 362 kts 343°
2026-05-01 10:38 37.82805 41.90955 15083 ft 365 kts 343°
2026-05-01 10:38 37.85262 41.90145 15616 ft 368 kts 343°
2026-05-01 10:38 37.87763 41.89308 16147 ft 371 kts 341°
2026-05-01 10:38 37.90091 41.87916 16603 ft 370 kts 321°
2026-05-01 10:39 37.91831 41.85585 17120 ft 366 kts 300°
2026-05-01 10:39 37.92905 41.82708 17630 ft 364 kts 289°
2026-05-01 10:39 37.93819 41.79702 18120 ft 367 kts 288°
2026-05-01 10:39 37.94720 41.76706 18597 ft 370 kts 288°
2026-05-01 10:40 37.95654 41.73631 19092 ft 373 kts 289°
2026-05-01 10:40 37.96592 41.70573 19573 ft 376 kts 289°
2026-05-01 10:40 37.97540 41.67497 20035 ft 378 kts 289°
2026-05-01 10:40 37.98504 41.64378 20493 ft 381 kts 289°
2026-05-01 10:41 37.99466 41.61266 20935 ft 383 kts 289°
2026-05-01 10:41 38.00440 41.58116 21374 ft 386 kts 289°
2026-05-01 10:41 38.02403 41.51766 22201 ft 391 kts 289°
2026-05-01 10:42 38.03406 41.48530 22607 ft 394 kts 289°
2026-05-01 10:42 38.04401 41.45316 23025 ft 396 kts 289°
2026-05-01 10:42 38.05409 41.42054 23442 ft 398 kts 289°
2026-05-01 10:42 38.06424 41.38756 23837 ft 400 kts 289°
2026-05-01 10:43 38.07431 41.35484 24242 ft 402 kts 289°
2026-05-01 10:43 38.08444 41.32180 24642 ft 403 kts 289°
2026-05-01 10:43 38.09463 41.28846 25021 ft 405 kts 289°
2026-05-01 10:43 38.10481 41.25519 25375 ft 407 kts 289°
2026-05-01 10:44 38.11512 41.22186 25708 ft 409 kts 289°
2026-05-01 10:44 38.12552 41.18819 26042 ft 411 kts 289°
2026-05-01 10:44 38.13588 41.15446 26371 ft 412 kts 289°
2026-05-01 10:44 38.14623 41.12070 26696 ft 414 kts 289°
2026-05-01 10:45 38.15693 41.08652 27015 ft 416 kts 289°
2026-05-01 10:45 38.16758 41.05264 27308 ft 418 kts 289°
2026-05-01 10:45 38.17840 41.01816 27603 ft 419 kts 289°
2026-05-01 10:45 38.18912 40.98381 27898 ft 421 kts 289°
2026-05-01 10:46 38.19980 40.94945 28184 ft 423 kts 289°
2026-05-01 10:46 38.21059 40.91463 28462 ft 424 kts 289°
2026-05-01 10:46 38.22133 40.87993 28740 ft 425 kts 289°
2026-05-01 10:46 38.23217 40.84489 29015 ft 427 kts 289°
2026-05-01 10:47 38.24298 40.80994 29285 ft 428 kts 289°
2026-05-01 10:47 38.25382 40.77442 29528 ft 430 kts 289°
2026-05-01 10:47 38.26457 40.73883 29744 ft 432 kts 289°
2026-05-01 10:47 38.27527 40.70330 30006 ft 432 kts 289°
2026-05-01 10:48 38.28594 40.66779 30367 ft 431 kts 289°
2026-05-01 10:48 38.29658 40.63233 30733 ft 429 kts 289°
2026-05-01 10:48 38.30716 40.59703 31063 ft 427 kts 288°
2026-05-01 10:48 38.31770 40.56177 31381 ft 426 kts 288°
2026-05-01 10:49 38.32819 40.52663 31684 ft 425 kts 288°
2026-05-01 10:49 38.33863 40.49158 31972 ft 425 kts 288°
2026-05-01 10:49 38.34907 40.45648 32256 ft 424 kts 288°
2026-05-01 10:49 38.35938 40.42177 32524 ft 423 kts 288°
2026-05-01 10:50 38.36981 40.38660 32802 ft 422 kts 288°
2026-05-01 10:50 38.38005 40.35204 33070 ft 421 kts 288°
2026-05-01 10:50 38.39038 40.31704 33350 ft 420 kts 287°
2026-05-01 10:50 38.40069 40.28200 33627 ft 419 kts 287°
2026-05-01 10:51 38.41084 40.24753 33891 ft 418 kts 287°
2026-05-01 10:51 38.42103 40.21290 34167 ft 417 kts 287°
2026-05-01 10:51 38.43122 40.17820 34406 ft 416 kts 287°
2026-05-01 10:51 38.44131 40.14391 34593 ft 416 kts 287°
2026-05-01 10:52 38.45479 40.09796 34788 ft 417 kts 287°
2026-05-01 10:52 38.47182 40.03984 35037 ft 418 kts 287°
2026-05-01 10:52 38.48191 40.00535 35175 ft 419 kts 287°
2026-05-01 10:53 38.49213 39.97035 35308 ft 420 kts 287°
2026-05-01 10:53 38.50228 39.93554 35449 ft 420 kts 287°
2026-05-01 10:53 38.51246 39.90057 35590 ft 420 kts 287°
2026-05-01 10:53 38.52257 39.86582 35709 ft 421 kts 287°
2026-05-01 10:54 38.53277 39.83071 35839 ft 421 kts 287°
2026-05-01 10:54 38.54300 39.79541 35952 ft 422 kts 287°
2026-05-01 10:54 38.55322 39.76014 36056 ft 423 kts 287°
2026-05-01 10:55 38.57362 39.68951 36060 ft 429 kts 287°
2026-05-01 10:55 38.59430 39.61770 36061 ft 431 kts 287°
2026-05-01 10:56 38.61494 39.54584 36063 ft 431 kts 287°
2026-05-01 10:56 38.63576 39.47393 36062 ft 432 kts 287°
2026-05-01 10:57 38.65683 39.40212 36061 ft 432 kts 287°
2026-05-01 10:57 38.67769 39.33046 36061 ft 432 kts 287°
2026-05-01 10:58 38.69826 39.25830 36055 ft 431 kts 285°
2026-05-01 10:58 38.71421 39.18466 36053 ft 429 kts 279°
2026-05-01 10:59 38.72571 39.10975 36051 ft 428 kts 278°
2026-05-01 10:59 38.73672 39.03521 36049 ft 428 kts 278°
2026-05-01 11:00 38.74782 38.95999 36048 ft 428 kts 278°
2026-05-01 11:00 38.75883 38.88551 36055 ft 428 kts 278°
2026-05-01 11:01 38.77016 38.81099 36058 ft 428 kts 278°
2026-05-01 11:01 38.78151 38.73588 36070 ft 428 kts 278°
2026-05-01 11:02 38.79270 38.66136 36062 ft 428 kts 278°
2026-05-01 11:02 38.80380 38.58682 36057 ft 428 kts 278°
2026-05-01 11:03 38.81490 38.51202 36048 ft 428 kts 278°
2026-05-01 11:03 38.82595 38.43711 36047 ft 428 kts 278°
2026-05-01 11:04 38.83696 38.36216 36049 ft 428 kts 278°
2026-05-01 11:04 38.84784 38.28759 36062 ft 427 kts 277°
2026-05-01 11:05 38.85869 38.21285 36062 ft 427 kts 277°
2026-05-01 11:05 38.86949 38.13811 36074 ft 427 kts 277°
2026-05-01 11:06 38.88030 38.06311 36081 ft 427 kts 277°
2026-05-01 11:06 38.89110 37.98782 36091 ft 427 kts 277°
2026-05-01 11:07 38.90709 37.87563 36083 ft 427 kts 277°
2026-05-01 11:07 38.91765 37.80108 36082 ft 427 kts 277°
2026-05-01 11:08 38.92827 37.72588 36080 ft 427 kts 277°
2026-05-01 11:09 38.94399 37.61372 36079 ft 427 kts 277°
2026-05-01 11:09 38.95439 37.53910 36078 ft 427 kts 277°
2026-05-01 11:10 38.96995 37.42672 36084 ft 427 kts 277°
2026-05-01 11:10 38.98025 37.35192 36081 ft 426 kts 277°
2026-05-01 11:11 38.99022 37.27888 36077 ft 425 kts 277°
2026-05-01 11:11 39.00037 37.20423 36073 ft 425 kts 277°
2026-05-01 11:12 39.01044 37.12995 36071 ft 425 kts 277°
2026-05-01 11:12 39.02053 37.05523 36066 ft 425 kts 277°
2026-05-01 11:13 39.03061 36.98011 36067 ft 426 kts 277°
2026-05-01 11:13 39.04061 36.90529 36060 ft 426 kts 277°
2026-05-01 11:14 39.05050 36.83082 36054 ft 426 kts 277°
2026-05-01 11:14 39.06046 36.75561 36055 ft 426 kts 276°
2026-05-01 11:15 39.07029 36.68084 36052 ft 426 kts 277°
2026-05-01 11:15 39.08007 36.60608 36048 ft 426 kts 277°
2026-05-01 11:16 39.08984 36.53100 36048 ft 426 kts 277°
2026-05-01 11:16 39.09958 36.45583 36045 ft 426 kts 277°
2026-05-01 11:17 39.10947 36.38079 36041 ft 425 kts 277°
2026-05-01 11:17 39.11920 36.30592 36036 ft 425 kts 276°
2026-05-01 11:18 39.12873 36.23102 36025 ft 425 kts 276°
2026-05-01 11:18 39.13815 36.15626 36022 ft 425 kts 276°
2026-05-01 11:19 39.14789 36.08144 36018 ft 426 kts 278°
2026-05-01 11:19 39.16239 36.00700 36010 ft 429 kts 283°
2026-05-01 11:20 39.18223 35.93495 35999 ft 431 kts 287°
2026-05-01 11:20 39.20357 35.86289 35998 ft 431 kts 287°
2026-05-01 11:21 39.22497 35.79059 36004 ft 431 kts 287°
2026-05-01 11:21 39.24625 35.71845 36007 ft 431 kts 287°
2026-05-01 11:22 39.26727 35.64691 36000 ft 431 kts 287°
2026-05-01 11:22 39.28849 35.57452 35991 ft 430 kts 287°
2026-05-01 11:23 39.30950 35.50258 35978 ft 430 kts 287°
2026-05-01 11:23 39.33047 35.43057 35972 ft 430 kts 287°
2026-05-01 11:24 39.35136 35.35858 35966 ft 430 kts 287°
2026-05-01 11:25 39.38269 35.24982 35957 ft 431 kts 287°
2026-05-01 11:25 39.41421 35.14148 35955 ft 431 kts 287°
2026-05-01 11:26 39.44643 35.03302 35948 ft 431 kts 287°
2026-05-01 11:27 39.46770 34.96087 35952 ft 430 kts 287°
2026-05-01 11:27 39.48879 34.88904 35944 ft 430 kts 287°
2026-05-01 11:28 39.50999 34.81649 35934 ft 430 kts 287°
2026-05-01 11:28 39.53095 34.74464 35932 ft 430 kts 287°
2026-05-01 11:29 39.56256 34.63585 35930 ft 430 kts 287°
2026-05-01 11:30 39.59382 34.52779 35928 ft 430 kts 287°
2026-05-01 11:30 39.61483 34.45492 35923 ft 430 kts 287°
2026-05-01 11:31 39.63553 34.38294 35922 ft 429 kts 286°
2026-05-01 11:31 39.65636 34.31014 35917 ft 429 kts 286°
2026-05-01 11:32 39.67705 34.23761 35918 ft 428 kts 285°
2026-05-01 11:32 39.69762 34.16538 35910 ft 428 kts 285°
2026-05-01 11:33 39.71809 34.09330 35912 ft 427 kts 285°
2026-05-01 11:33 39.73852 34.02111 35918 ft 428 kts 285°
2026-05-01 11:34 39.75901 33.94849 35920 ft 427 kts 285°
2026-05-01 11:34 39.77839 33.87566 35921 ft 427 kts 282°
2026-05-01 11:35 39.79386 33.80164 35928 ft 426 kts 281°
2026-05-01 11:35 39.80882 33.72762 35933 ft 426 kts 280°
2026-05-01 11:36 39.82384 33.65318 35932 ft 427 kts 281°
2026-05-01 11:36 39.84202 33.57948 35929 ft 430 kts 286°
2026-05-01 11:37 39.86367 33.50709 35938 ft 430 kts 287°
2026-05-01 11:37 39.88538 33.43485 35937 ft 431 kts 287°
2026-05-01 11:38 39.90710 33.36229 35936 ft 430 kts 287°
2026-05-01 11:38 39.92860 33.29001 35940 ft 430 kts 286°
2026-05-01 11:39 39.95015 33.21740 35946 ft 430 kts 286°
2026-05-01 11:39 39.97167 33.14478 35954 ft 429 kts 286°
2026-05-01 11:40 39.99297 33.07274 35955 ft 429 kts 286°
2026-05-01 11:40 40.01430 33.00025 35951 ft 430 kts 286°
2026-05-01 11:41 40.03574 32.92730 35960 ft 429 kts 286°
2026-05-01 11:41 40.05797 32.85523 35969 ft 431 kts 289°
2026-05-01 11:42 40.08553 32.78537 35972 ft 436 kts 295°
2026-05-01 11:42 40.11859 32.71904 35960 ft 438 kts 299°
2026-05-01 11:43 40.15363 32.65363 35965 ft 438 kts 299°
2026-05-01 11:43 40.18814 32.58886 35969 ft 437 kts 299°
2026-05-01 11:44 40.23998 32.49086 35971 ft 437 kts 299°
2026-05-01 11:44 40.27453 32.42529 35958 ft 437 kts 299°
2026-05-01 11:45 40.30897 32.35972 35969 ft 437 kts 299°
2026-05-01 11:45 40.34349 32.29369 35979 ft 437 kts 298°
2026-05-01 11:46 40.37761 32.22829 35962 ft 436 kts 298°
2026-05-01 11:46 40.41161 32.16312 35987 ft 435 kts 298°
2026-05-01 11:47 40.44567 32.09781 36190 ft 435 kts 298°
2026-05-01 11:47 40.47958 32.03249 36030 ft 432 kts 298°
2026-05-01 11:48 40.51323 31.96730 35994 ft 434 kts 298°
2026-05-01 11:48 40.54679 31.90172 35970 ft 432 kts 296°
2026-05-01 11:49 40.57632 31.83307 35986 ft 427 kts 290°
2026-05-01 11:49 40.59966 31.76212 35978 ft 423 kts 285°
2026-05-01 11:50 40.61836 31.68901 35983 ft 423 kts 283°
2026-05-01 11:50 40.63644 31.61557 36000 ft 423 kts 283°
2026-05-01 11:51 40.65450 31.54202 36007 ft 424 kts 283°
2026-05-01 11:51 40.67251 31.46862 36018 ft 423 kts 283°
2026-05-01 11:52 40.69046 31.39517 36027 ft 423 kts 283°
2026-05-01 11:52 40.70833 31.32176 36028 ft 422 kts 282°
2026-05-01 11:53 40.72614 31.24838 36025 ft 416 kts 282°
2026-05-01 11:53 40.73501 31.21207 35866 ft 409 kts 282°
2026-05-01 11:53 40.74368 31.17654 35434 ft 407 kts 282°
2026-05-01 11:54 40.75218 31.14157 34950 ft 405 kts 281°
2026-05-01 11:54 40.76070 31.10647 34474 ft 403 kts 281°
2026-05-01 11:54 40.76921 31.07121 33946 ft 403 kts 281°
2026-05-01 11:54 40.77763 31.03612 33301 ft 405 kts 280°
2026-05-01 11:55 40.78603 31.00104 32600 ft 408 kts 280°
2026-05-01 11:55 40.79461 30.96518 31850 ft 412 kts 280°
2026-05-01 11:55 40.80322 30.92915 31054 ft 416 kts 280°
2026-05-01 11:55 40.81187 30.89282 30215 ft 420 kts 280°
2026-05-01 11:56 40.82056 30.85621 29397 ft 421 kts 281°
2026-05-01 11:56 40.82931 30.81955 28804 ft 417 kts 281°
2026-05-01 11:56 40.83794 30.78333 28283 ft 412 kts 281°
2026-05-01 11:56 40.84644 30.74767 27814 ft 405 kts 281°
2026-05-01 11:57 40.85368 30.71297 27577 ft 387 kts 274°
2026-05-01 11:57 40.85617 30.67794 27153 ft 376 kts 267°
2026-05-01 11:57 40.85710 30.64370 26570 ft 374 kts 266°
2026-05-01 11:57 40.85791 30.60987 26033 ft 371 kts 267°
2026-05-01 11:58 40.85889 30.57579 25498 ft 368 kts 268°
2026-05-01 11:58 40.85998 30.54249 24985 ft 364 kts 268°
2026-05-01 11:58 40.86235 30.47676 23946 ft 358 kts 269°
2026-05-01 11:59 40.86359 30.44396 23425 ft 356 kts 269°
2026-05-01 11:59 40.86483 30.41156 22913 ft 353 kts 269°
2026-05-01 11:59 40.86605 30.37944 22384 ft 350 kts 270°
2026-05-01 12:00 40.86847 30.31607 21393 ft 345 kts 269°
2026-05-01 12:00 40.86970 30.28433 20906 ft 343 kts 270°
2026-05-01 12:00 40.87206 30.22240 19942 ft 338 kts 270°
2026-05-01 12:01 40.87323 30.19136 19466 ft 337 kts 270°
2026-05-01 12:01 40.87437 30.16081 18974 ft 335 kts 270°
2026-05-01 12:01 40.87551 30.13022 18490 ft 333 kts 271°
2026-05-01 12:01 40.87663 30.09977 18020 ft 332 kts 271°
2026-05-01 12:02 40.87774 30.06966 17564 ft 330 kts 271°
2026-05-01 12:02 40.87886 30.03915 17089 ft 329 kts 271°
2026-05-01 12:02 40.87993 30.00935 16623 ft 329 kts 271°
2026-05-01 12:02 40.88101 29.97914 16125 ft 328 kts 272°
2026-05-01 12:03 40.88208 29.94940 15647 ft 327 kts 272°
2026-05-01 12:03 40.88315 29.91934 15188 ft 326 kts 272°
2026-05-01 12:03 40.88420 29.88963 14722 ft 325 kts 272°
2026-05-01 12:03 40.88525 29.85984 14219 ft 324 kts 272°
2026-05-01 12:04 40.88628 29.83013 13789 ft 323 kts 272°
2026-05-01 12:04 40.88728 29.80049 13359 ft 322 kts 273°
2026-05-01 12:04 40.88828 29.77116 12934 ft 321 kts 272°
2026-05-01 12:04 40.88927 29.74170 12484 ft 321 kts 273°
2026-05-01 12:05 40.89027 29.71235 12066 ft 319 kts 273°
2026-05-01 12:05 40.89220 29.65416 11196 ft 318 kts 273°
2026-05-01 12:05 40.89316 29.62515 10750 ft 317 kts 274°
2026-05-01 12:06 40.89410 29.59619 10318 ft 315 kts 274°
2026-05-01 12:06 40.89505 29.56705 9893 ft 314 kts 274°
2026-05-01 12:06 40.89598 29.53819 9471 ft 313 kts 274°
2026-05-01 12:06 40.89688 29.50997 9298 ft 303 kts 274°
2026-05-01 12:07 40.89774 29.48250 9121 ft 294 kts 274°
2026-05-01 12:07 40.89856 29.45605 8943 ft 286 kts 275°
2026-05-01 12:07 40.89936 29.42995 8710 ft 281 kts 275°
2026-05-01 12:07 40.90016 29.40434 8358 ft 280 kts 275°
2026-05-01 12:08 40.90096 29.37857 7994 ft 280 kts 275°
2026-05-01 12:08 40.90174 29.35298 7642 ft 279 kts 275°
2026-05-01 12:08 40.90251 29.32783 7286 ft 279 kts 275°
2026-05-01 12:08 40.90328 29.30208 6936 ft 279 kts 275°
2026-05-01 12:09 40.90405 29.27620 6587 ft 278 kts 275°
2026-05-01 12:09 40.90479 29.25070 6235 ft 278 kts 275°
2026-05-01 12:09 40.90553 29.22534 5895 ft 277 kts 275°
2026-05-01 12:09 40.90627 29.19966 5705 ft 275 kts 275°
2026-05-01 12:10 40.90701 29.17457 5706 ft 278 kts 275°
2026-05-01 12:10 40.90850 29.12302 5705 ft 279 kts 275°
2026-05-01 12:10 40.90922 29.09744 5706 ft 280 kts 275°
2026-05-01 12:11 40.91063 29.04644 5696 ft 271 kts 275°
2026-05-01 12:11 40.91127 29.02205 5685 ft 257 kts 275°
2026-05-01 12:11 40.91246 28.99902 5659 ft 244 kts 280°
2026-05-01 12:12 40.91433 28.97683 5375 ft 244 kts 281°
2026-05-01 12:12 40.91632 28.95464 5051 ft 244 kts 281°
2026-05-01 12:12 40.91830 28.93255 4754 ft 244 kts 282°
2026-05-01 12:12 40.92028 28.91022 4463 ft 243 kts 282°
2026-05-01 12:13 40.92222 28.88817 4170 ft 243 kts 282°
2026-05-01 12:13 40.92415 28.86610 3991 ft 241 kts 282°
2026-05-01 12:13 40.92611 28.84378 3982 ft 242 kts 282°
2026-05-01 12:13 40.92804 28.82167 3978 ft 243 kts 282°
2026-05-01 12:14 40.93113 28.80018 3965 ft 236 kts 301°
2026-05-01 12:14 40.94148 28.78486 3979 ft 217 kts 336°
2026-05-01 12:14 40.95480 28.77594 3985 ft 213 kts 342°
2026-05-01 12:14 40.96829 28.76885 3972 ft 201 kts 347°
2026-05-01 12:15 40.98151 28.76430 3978 ft 197 kts 356°
2026-05-01 12:15 40.99526 28.76234 3981 ft 195 kts
2026-05-01 12:15 41.00868 28.76172 3982 ft 194 kts
2026-05-01 12:15 41.02220 28.76140 3984 ft 193 kts
2026-05-01 12:16 41.03577 28.76112 3985 ft 193 kts
2026-05-01 12:16 41.04889 28.76084 4097 ft 178 kts
2026-05-01 12:16 41.06055 28.76057 4123 ft 159 kts
2026-05-01 12:16 41.07125 28.76036 4082 ft 149 kts
2026-05-01 12:17 41.08157 28.76015 3890 ft 146 kts
2026-05-01 12:17 41.09179 28.75995 3693 ft 145 kts
2026-05-01 12:17 41.10184 28.75976 3497 ft 144 kts
2026-05-01 12:17 41.11185 28.75954 3308 ft 143 kts
2026-05-01 12:18 41.12137 28.75935 3123 ft 142 kts
2026-05-01 12:18 41.13114 28.75917 2932 ft 141 kts
2026-05-01 12:18 41.14099 28.75898 2742 ft 140 kts
2026-05-01 12:18 41.15071 28.75877 2553 ft 139 kts
2026-05-01 12:19 41.16029 28.75859 2363 ft 138 kts
2026-05-01 12:19 41.17001 28.75842 2179 ft 139 kts
2026-05-01 12:19 41.17969 28.75823 2000 ft 139 kts
2026-05-01 12:19 41.18938 28.75806 1809 ft 138 kts
2026-05-01 12:20 41.19906 28.75785 1620 ft 138 kts
2026-05-01 12:20 41.20855 28.75768 1430 ft 138 kts
2026-05-01 12:20 41.21777 28.75748 1224 ft 128 kts
2026-05-01 12:20 41.22678 28.75732 1057 ft 128 kts
2026-05-01 12:21 41.23560 28.75718 892 ft 128 kts
2026-05-01 12:21 41.24452 28.75699 739 ft 129 kts
2026-05-01 12:21 41.25353 28.75660 573 ft 129 kts
2026-05-01 12:21 41.26261 28.75670 398 ft 131 kts 357°
2026-05-01 12:22 41.27161 28.75646 335 ft 115 kts 357°
2026-05-01 12:22 41.27658 28.75638 334 ft 30 kts 360°
2026-05-01 12:22 41.27862 28.75638 334 ft 29 kts 358°
2026-05-01 12:22 41.28065 28.75557 334 ft 30 kts 335°
2026-05-01 12:23 41.28162 28.75420 334 ft 11 kts 264°
2026-05-01 12:23 41.28156 28.75398 334 ft 0 kts 239°
2026-05-01 12:24 41.28150 28.75386 334 ft 4 kts 232°
2026-05-01 12:25 41.28105 28.75352 334 ft 10 kts 187°
2026-05-01 12:25 41.27884 28.75351 334 ft 20 kts 177°
2026-05-01 12:25 41.27749 28.75357 334 ft 19 kts 179°
2026-05-01 12:26 41.27615 28.75359 334 ft 19 kts 179°
2026-05-01 12:26 41.27339 28.75363 334 ft 20 kts 179°
2026-05-01 12:26 41.27199 28.75366 334 ft 20 kts 179°
2026-05-01 12:27 41.27058 28.75369 334 ft 20 kts 179°
2026-05-01 12:27 41.26876 28.75201 334 ft 18 kts 249°
2026-05-01 12:28 41.26795 28.75040 334 ft 8 kts 270°
2026-05-01 12:28 41.26795 28.75006 334 ft 0 kts 270°